Location: *
(49.3500°N, 12.6000°E)
Time: 05:27:48
(UTC+00:00)

Lacrosse 5 - Pass Details

Date: 18 October 2019
Orbit: 715 x 724 km, 57.0° (Epoch: 12 November)

Event Time Altitude Azimuth Distance (km) Brightness Sun altitude
Rises 17:31:11 0° 302° (WNW) 3,125 6.2 -13.3°
Reaches altitude 10° 17:33:35 10° 306° (NW) 2,203 5.2 -13.7°
Maximum altitude 17:38:38 64° 28° (NNE) 796 1.9 -14.5°
Enters shadow 17:41:42 23° 104° (ESE) 1,488 2.9 -15.0°
